| time (UTC) | temp C | wind direction | speed KPH | gust KPH | rain 1hr cm | rain 24hr cm | rain mn cm | humidity % | barometer mb |
| 20260505101656 | 15 | 34 | 0.0 | 3.2 | 0.00 | 0.00 | 0.00 | 73 | 1012.7 |
| 20260505100152 | 15 | 222 | 0.0 | 3.2 | 0.00 | 0.00 | 0.00 | 72 | 1012.7 |
| 20260505094647 | 15 | 338 | 0.0 | 3.2 | 0.00 | 0.00 | 0.00 | 71 | 1012.8 |
| 20260505093143 | 15 | 292 | 0.0 | 3.2 | 0.00 | 0.00 | 0.00 | 70 | 1012.7 |
| 20260505091637 | 15 | 324 | 3.2 | 9.7 | 0.00 | 0.00 | 0.00 | 69 | 1012.7 |
| 20260505090133 | 16 | 286 | 0.0 | 8.0 | 0.00 | 0.00 | 0.00 | 69 | 1012.6 |
| 20260505084631 | 16 | 322 | 0.0 | 4.8 | 0.00 | 0.00 | 0.00 | 68 | 1012.5 |
| 20260505081622 | 16 | 244 | 0.0 | 6.4 | 0.00 | 0.00 | 0.00 | 67 | 1012.5 |
| 20260505080117 | 16 | 206 | 0.0 | 9.7 | 0.00 | 0.00 | 0.00 | 66 | 1012.5 |
| 20260505074614 | 15 | 219 | 1.6 | 9.7 | 0.00 | 0.00 | 0.00 | 66 | 1012.6 |
| 20260505073113 | 16 | 163 | 0.0 | 3.2 | 0.00 | 0.00 | 0.00 | 64 | 1012.4 |
| 20260505071605 | 16 | 240 | 1.6 | 8.0 | 0.00 | 0.00 | 0.00 | 63 | 1012.2 |
| 20260505070104 | 16 | 40 | 1.6 | 8.0 | 0.00 | 0.00 | 0.00 | 63 | 1012.2 |
| 20260505064558 | 16 | 68 | 0.0 | 4.8 | 0.00 | 0.00 | 0.00 | 63 | 1012.1 |
| 20260505063054 | 16 | 311 | 0.0 | 8.0 | 0.00 | 0.00 | 0.00 | 63 | 1012.1 |
| 20260505061554 | 16 | 306 | 0.0 | 6.4 | 0.00 | 0.00 | 0.00 | 63 | 1011.9 |
| 20260505060046 | 15 | 1 | 1.6 | 11.3 | 0.00 | 0.00 | 0.00 | 64 | 1011.9 |
| 20260505054600 | 15 | 237 | 0.0 | 16.1 | 0.00 | 0.00 | 0.00 | 65 | 1011.9 |
| 20260505053041 | 15 | 290 | 0.0 | 4.8 | 0.00 | 0.00 | 0.00 | 66 | 1011.7 |
| 20260505051534 | 15 | 347 | 0.0 | 1.6 | 0.00 | 0.00 | 0.00 | 67 | 1011.7 |
| 20260505041516 | 15 | 35 | 0.0 | 0.0 | 0.00 | 0.00 | 0.00 | 67 | 1011.5 |
| 20260505040011 | 15 | 35 | 0.0 | 0.0 | 0.00 | 0.00 | 0.00 | 67 | 1011.4 |
| 20260505034510 | 15 | 35 | 0.0 | 0.0 | 0.00 | 0.00 | 0.00 | 67 | 1011.4 |
| 20260505033003 | 16 | 35 | 0.0 | 0.0 | 0.00 | 0.00 | 0.00 | 65 | 1011.4 |